Hourly Weather Otry

Today, 30 July, Friday

Time Temperature Precipitation Wind Pressure Humidity
00:00 +17°C° 0 mm 2 mps 742 mmHg 79%
01:00 +17°C° 0 mm 2 mps 741 mmHg 80%
02:00 +16°C° 0 mm 2 mps 741 mmHg 81%
03:00 +16°C° 0 mm 2 mps 741 mmHg 82%
04:00 +14°C° 0 mm 3 mps 741 mmHg 83%
05:00 +17°C° 0 mm 3 mps 741 mmHg 77%
06:00 +18°C° 0 mm 4 mps 741 mmHg 71%
07:00 +19°C° 0 mm 4 mps 741 mmHg 64%
08:00 +20°C° 0 mm 5 mps 741 mmHg 58%
09:00 +21°C° 0 mm 6 mps 741 mmHg 53%
10:00 +22°C° 0 mm 7 mps 741 mmHg 47%
11:00 +23°C° 0 mm 7 mps 741 mmHg 45%
12:00 +23°C° 0 mm 7 mps 740 mmHg 42%
13:00 +24°C° 0 mm 7 mps 740 mmHg 40%
14:00 +24°C° 0 mm 6 mps 740 mmHg 42%
15:00 +24°C° 0 mm 6 mps 740 mmHg 44%
16:00 +25°C° 0 mm 5 mps 739 mmHg 45%
17:00 +22°C° 0 mm 4 mps 739 mmHg 51%
18:00 +21°C° 0 mm 4 mps 739 mmHg 57%
19:00 +19°C° 0 mm 3 mps 739 mmHg 63%
20:00 +18°C° 0 mm 3 mps 740 mmHg 63%
21:00 +17°C° 0 mm 3 mps 740 mmHg 64%
22:00 +16°C° 0 mm 3 mps 740 mmHg 64%
23:00 +16°C° 0 mm 3 mps 740 mmHg 66%

Tomorrow, 31 July, Saturday

Time Temperature Precipitation Wind Pressure Humidity
00:00 +14°C° 0 mm 3 mps 740 mmHg 68%
01:00 +13°C° 0 mm 3 mps 740 mmHg 70%
02:00 +13°C° 0 mm 3 mps 740 mmHg 71%
03:00 +13°C° 0 mm 3 mps 740 mmHg 72%
04:00 +13°C° 0 mm 3 mps 740 mmHg 73%
05:00 +14°C° 0 mm 3 mps 740 mmHg 70%
06:00 +17°C° 0 mm 3 mps 740 mmHg 67%
07:00 +18°C° 0 mm 3 mps 740 mmHg 64%
08:00 +20°C° 0 mm 3 mps 740 mmHg 60%
09:00 +22°C° 0 mm 3 mps 740 mmHg 56%
10:00 +24°C° 0 mm 3 mps 740 mmHg 52%
11:00 +25°C° 0 mm 3 mps 740 mmHg 51%
12:00 +26°C° 0 mm 4 mps 740 mmHg 49%
13:00 +27°C° 0 mm 4 mps 740 mmHg 48%
14:00 +26°C° 0.1 mm 4 mps 739 mmHg 55%
15:00 +25°C° 0.1 mm 4 mps 739 mmHg 62%
16:00 +22°C° 0.1 mm 3 mps 739 mmHg 70%
17:00 +21°C° 0.3 mm 3 mps 739 mmHg 75%
18:00 +20°C° 0.3 mm 3 mps 739 mmHg 81%
19:00 +19°C° 0.3 mm 3 mps 738 mmHg 86%
20:00 +19°C° 0 mm 3 mps 739 mmHg 88%
21:00 +18°C° 0 mm 3 mps 739 mmHg 90%
22:00 +17°C° 0 mm 4 mps 739 mmHg 92%
23:00 +16°C° 0 mm 3 mps 739 mmHg 89%

Day after tomorrow, 1 August, Sunday

Time Temperature Precipitation Wind Pressure Humidity
00:00 +16°C° 0 mm 3 mps 739 mmHg 87%
01:00 +14°C° 0 mm 3 mps 739 mmHg 85%
02:00 +14°C° 0 mm 3 mps 739 mmHg 84%
03:00 +13°C° 0 mm 3 mps 739 mmHg 84%
04:00 +13°C° 0 mm 3 mps 739 mmHg 84%
05:00 +14°C° 0 mm 4 mps 740 mmHg 80%
06:00 +15°C° 0 mm 4 mps 740 mmHg 76%
07:00 +18°C° 0 mm 4 mps 740 mmHg 73%
08:00 +19°C° 0 mm 4 mps 740 mmHg 67%
09:00 +21°C° 0 mm 4 mps 741 mmHg 61%
10:00 +22°C° 0 mm 4 mps 741 mmHg 55%
11:00 +22°C° 0 mm 4 mps 741 mmHg 56%
12:00 +22°C° 0 mm 4 mps 741 mmHg 58%
13:00 +22°C° 0 mm 4 mps 741 mmHg 60%
14:00 +20°C° 0.8 mm 4 mps 741 mmHg 70%
15:00 +18°C° 0.8 mm 3 mps 741 mmHg 80%
16:00 +16°C° 0.8 mm 3 mps 741 mmHg 90%
17:00 +16°C° 0.1 mm 3 mps 741 mmHg 89%
18:00 +16°C° 0.1 mm 2 mps 741 mmHg 89%
19:00 +15°C° 0.1 mm 2 mps 740 mmHg 88%
20:00 +15°C° 0 mm 2 mps 740 mmHg 90%
21:00 +14°C° 0 mm 2 mps 740 mmHg 92%
22:00 +14°C° 0 mm 2 mps 740 mmHg 95%
23:00 +13°C° 0 mm 2 mps 740 mmHg 95%

2 August, Monday

Time Temperature Precipitation Wind Pressure Humidity
00:00 +13°C° 0 mm 2 mps 740 mmHg 95%
01:00 +13°C° 0 mm 2 mps 740 mmHg 95%
02:00 +13°C° 0 mm 2 mps 740 mmHg 94%
03:00 +13°C° 0 mm 2 mps 740 mmHg 93%
04:00 +13°C° 0 mm 2 mps 740 mmHg 93%
05:00 +15°C° 0 mm 2 mps 740 mmHg 88%
06:00 +16°C° 0 mm 2 mps 740 mmHg 83%
07:00 +17°C° 0 mm 2 mps 740 mmHg 79%
08:00 +18°C° 0 mm 3 mps 740 mmHg 72%
09:00 +20°C° 0 mm 3 mps 740 mmHg 65%
10:00 +21°C° 0 mm 4 mps 740 mmHg 58%
11:00 +21°C° 0.4 mm 4 mps 740 mmHg 62%
12:00 +21°C° 0.4 mm 4 mps 740 mmHg 66%
13:00 +20°C° 0.4 mm 5 mps 741 mmHg 70%
14:00 +20°C° 0.4 mm 4 mps 741 mmHg 71%
15:00 +20°C° 0.4 mm 4 mps 741 mmHg 73%
16:00 +19°C° 0.4 mm 4 mps 741 mmHg 75%
17:00 +18°C° 0.2 mm 3 mps 741 mmHg 77%
18:00 +17°C° 0.2 mm 3 mps 741 mmHg 80%
19:00 +16°C° 0.2 mm 2 mps 741 mmHg 82%
20:00 +16°C° 0 mm 2 mps 742 mmHg 83%
21:00 +15°C° 0 mm 2 mps 742 mmHg 84%
22:00 +13°C° 0 mm 3 mps 742 mmHg 85%
23:00 +13°C° 0 mm 3 mps 743 mmHg 86%

3 August, Tuesday

Time Temperature Precipitation Wind Pressure Humidity
00:00 +12°C° 0 mm 3 mps 743 mmHg 87%
01:00 +11°C° 0 mm 3 mps 743 mmHg 87%
02:00 +11°C° 0 mm 3 mps 743 mmHg 88%
03:00 +11°C° 0 mm 3 mps 743 mmHg 88%
04:00 +10°C° 0 mm 3 mps 743 mmHg 89%
05:00 +12°C° 0 mm 4 mps 744 mmHg 84%
06:00 +14°C° 0 mm 4 mps 744 mmHg 79%
07:00 +15°C° 0 mm 5 mps 744 mmHg 74%
08:00 +17°C° 0 mm 5 mps 744 mmHg 68%
09:00 +19°C° 0 mm 5 mps 744 mmHg 61%
10:00 +21°C° 0 mm 5 mps 744 mmHg 55%
11:00 +21°C° 0.1 mm 5 mps 744 mmHg 53%
12:00 +21°C° 0.1 mm 5 mps 744 mmHg 51%
13:00 +22°C° 0.1 mm 5 mps 744 mmHg 49%
14:00 +22°C° 0.1 mm 4 mps 744 mmHg 50%
15:00 +22°C° 0.1 mm 3 mps 744 mmHg 52%
16:00 +22°C° 0.1 mm 3 mps 744 mmHg 53%
17:00 +20°C° 0 mm 2 mps 744 mmHg 59%
18:00 +19°C° 0 mm 2 mps 744 mmHg 66%
19:00 +19°C° 0 mm 1 mps 745 mmHg 72%
20:00 +18°C° 0 mm 1 mps 745 mmHg 77%
21:00 +16°C° 0 mm 1 mps 745 mmHg 81%
22:00 +14°C° 0 mm 1 mps 745 mmHg 86%
23:00 +15°C° 0 mm 1 mps 745 mmHg 85%

4 August, Wednesday

Time Temperature Precipitation Wind Pressure Humidity
00:00 +15°C° 0 mm 1 mps 745 mmHg 85%
01:00 +15°C° 0 mm 1 mps 745 mmHg 84%
02:00 +15°C° 0.1 mm 1 mps 745 mmHg 85%
03:00 +15°C° 0.1 mm 1 mps 745 mmHg 86%
04:00 +15°C° 0.1 mm 1 mps 745 mmHg 87%
05:00 +15°C° 0.2 mm 1 mps 745 mmHg 88%
06:00 +15°C° 0.2 mm 1 mps 745 mmHg 88%
07:00 +15°C° 0.2 mm 1 mps 745 mmHg 89%
08:00 +16°C° 0.3 mm 1 mps 746 mmHg 89%
09:00 +16°C° 0.3 mm 1 mps 746 mmHg 89%
10:00 +16°C° 0.3 mm 1 mps 746 mmHg 89%
11:00 +17°C° 0.1 mm 2 mps 746 mmHg 82%
12:00 +19°C° 0.1 mm 2 mps 746 mmHg 76%
13:00 +20°C° 0.1 mm 2 mps 745 mmHg 70%
14:00 +20°C° 0.6 mm 2 mps 745 mmHg 70%
15:00 +20°C° 0.6 mm 2 mps 745 mmHg 70%
16:00 +20°C° 0.6 mm 2 mps 745 mmHg 71%
17:00 +19°C° 0.3 mm 2 mps 745 mmHg 74%
18:00 +18°C° 0.3 mm 2 mps 745 mmHg 78%
19:00 +18°C° 0.3 mm 1 mps 745 mmHg 81%
20:00 +17°C° 0.1 mm 2 mps 744 mmHg 84%
21:00 +16°C° 0.1 mm 2 mps 744 mmHg 88%
22:00 +15°C° 0.1 mm 2 mps 744 mmHg 91%
23:00 +15°C° 0.5 mm 2 mps 744 mmHg 93%
Show more